TimeEDT,TemperatureF,Dew PointF,Humidity,Sea Level PressureIn,VisibilityMPH,Wind Direction,Wind SpeedMPH,Gust SpeedMPH,PrecipitationIn,Events,Conditions,WindDirDegrees,DateUTC
12:53 AM,34.0,28.9,82,30.39,10.0,SSE,3.5,-,N/A,,Clear,150,2012-10-13 04:53:00
1:53 AM,32.0,27.0,82,30.38,10.0,SE,3.5,-,N/A,,Clear,140,2012-10-13 05:53:00
2:53 AM,33.1,28.9,85,30.36,10.0,ESE,3.5,-,N/A,,Clear,120,2012-10-13 06:53:00
3:53 AM,32.0,28.9,88,30.35,10.0,SSE,5.8,-,N/A,,Clear,160,2012-10-13 07:53:00
4:53 AM,34.0,30.0,85,30.33,10.0,South,5.8,-,N/A,,Clear,180,2012-10-13 08:53:00
5:53 AM,33.1,30.0,89,30.33,10.0,South,3.5,-,N/A,,Clear,170,2012-10-13 09:53:00
6:53 AM,34.0,30.9,89,30.32,10.0,SE,4.6,-,N/A,,Clear,140,2012-10-13 10:53:00
7:53 AM,39.0,33.1,79,30.29,10.0,SSE,9.2,-,N/A,,Clear,150,2012-10-13 11:53:00
8:53 AM,42.1,35.1,76,30.30,10.0,South,6.9,-,N/A,,Scattered Clouds,180,2012-10-13 12:53:00
9:53 AM,42.1,37.0,82,30.31,10.0,SSE,6.9,-,0.01,Rain,Light Rain,160,2012-10-13 13:53:00
10:53 AM,43.0,37.9,82,30.27,6.0,SSE,9.2,-,0.04,Rain,Light Rain,160,2012-10-13 14:53:00
11:53 AM,42.1,39.0,89,30.22,4.0,South,13.8,-,0.11,Rain,Rain,170,2012-10-13 15:53:00
12:53 PM,44.1,39.9,85,30.17,5.0,SSE,10.4,-,0.10,Rain,Light Rain,150,2012-10-13 16:53:00
1:34 PM,44.6,41.0,87,30.11,2.5,SSE,11.5,-,0.09,Rain,Rain,160,2012-10-13 17:34:00
1:53 PM,44.1,41.0,89,30.11,4.0,SSE,13.8,-,0.13,Rain,Rain,160,2012-10-13 17:53:00
2:53 PM,48.0,43.0,83,30.03,10.0,SSE,15.0,23.0,0.00,,Overcast,150,2012-10-13 18:53:00
3:53 PM,48.9,44.1,83,30.01,7.0,South,15.0,-,0.00,Rain,Light Rain,170,2012-10-13 19:53:00
4:46 PM,48.2,44.6,87,29.95,5.0,South,15.0,23.0,0.07,Rain,Light Rain,170,2012-10-13 20:46:00
4:53 PM,50.0,45.0,83,29.97,2.5,South,15.0,23.0,0.08,Rain,Rain,180,2012-10-13 20:53:00
5:09 PM,48.2,46.4,93,29.94,4.0,South,16.1,24.2,0.04,Rain,Light Rain,180,2012-10-13 21:09:00
5:18 PM,48.2,46.4,93,29.94,2.5,South,16.1,-,0.06,Rain,Rain,180,2012-10-13 21:18:00
5:39 PM,50.0,46.4,87,29.95,4.0,South,10.4,-,N/A,Rain,Light Rain,190,2012-10-13 21:39:00
5:53 PM,50.0,46.9,89,29.95,7.0,South,11.5,19.6,0.14,Rain,Light Rain,190,2012-10-13 21:53:00
6:12 PM,51.8,46.4,82,29.93,2.5,South,11.5,-,0.03,Rain,Light Rain,180,2012-10-13 22:12:00
6:29 PM,51.8,46.4,82,29.92,3.0,South,10.4,-,0.06,Rain,Light Rain,190,2012-10-13 22:29:00
6:53 PM,51.1,48.0,89,29.93,6.0,South,9.2,-,0.07,Rain,Light Rain,180,2012-10-13 22:53:00
7:53 PM,53.6,51.8,94,29.88,6.0,South,11.5,-,N/A,Rain,Light Rain,190,2012-10-13 23:53:00
8:53 PM,57.0,53.1,87,29.87,7.0,SSW,16.1,23.0,0.01,,Mostly Cloudy,210,2012-10-14 00:53:00
9:05 PM,57.2,53.6,88,29.87,7.0,SSW,12.7,24.2,N/A,,Overcast,210,2012-10-14 01:05:00
9:16 PM,57.2,53.6,88,29.87,7.0,SSW,12.7,19.6,N/A,,Overcast,210,2012-10-14 01:16:00
9:24 PM,57.2,53.6,88,29.87,7.0,SSW,11.5,-,N/A,,Overcast,210,2012-10-14 01:24:00
9:40 PM,57.2,55.4,94,29.87,5.0,SSW,10.4,-,0.00,Rain,Light Rain,200,2012-10-14 01:40:00
9:53 PM,57.9,55.0,90,29.88,7.0,SSW,9.2,-,0.02,,Overcast,210,2012-10-14 01:53:00
10:14 PM,57.2,55.4,94,29.87,6.0,SSW,10.4,17.3,N/A,,Overcast,200,2012-10-14 02:14:00
10:53 PM,59.0,55.9,90,29.87,6.0,SSW,9.2,-,0.00,,Overcast,210,2012-10-14 02:53:00
11:12 PM,60.8,57.2,88,29.86,6.0,SSW,10.4,-,N/A,,Overcast,210,2012-10-14 03:12:00
11:53 PM,62.1,59.0,90,29.86,6.0,SW,9.2,18.4,0.01,,Overcast,230,2012-10-14 03:53:00